QPF
0.00 0.00 0.00 0.00 0.00 0.00 0.00 0.00 0.00 0.00 0.00 0.00 0.00 0.00 0.00 0.00 0.00 0.00 0.00 0.00 0.00 0.00 0.00 0.00 0.00 0.00 0.00 0.00 0.00 0.00 0.00 0.00 0.00 0.00 0.00 0.00 0.00 0.00 0.00 0.00 0.00 0.00 0.00
0.00 0.00 0.00 0.00 0.00 0.00 0.00 0.00 0.00 0.00 0.00 0.00 0.00 0.00 0.00 0.00 0.00 0.00 0.00 0.00 0.00 0.00 0.00 0.00 0.00 0.00 0.00 0.00 0.00 0.00 0.00 0.00 0.00 0.00 0.00 0.00 0.00 0.00 0.00 0.00 0.00 0.00 0.00
0.00 0.00 0.00 0.00 0.00 0.00 0.00 0.00 0.00 0.00 0.00 0.00 0.00 0.00 0.00 0.00 0.00 0.00 0.00 0.00 0.00 0.00 0.00 0.00 0.00 0.00 0.00 0.00 0.00 0.00 0.00 0.00 0.00 0.00 0.00 0.00 0.00 0.00 0.00 0.00 0.00 0.00 0.00
0.00 0.00 0.00 0.00 0.00 0.00 0.00 0.00 0.00 0.00 0.00 0.00 0.00 0.00 0.00 0.00 0.00 0.00 0.00 0.00 0.00 0.00 0.00 0.00 0.00 0.00 0.00 0.00 0.00 0.00 0.00 0.00 0.00 0.00 0.00 0.00 0.00 0.00 0.00 0.00 0.00 0.00 0.00
0.00 0.00 0.00 0.00 0.00 0.00 0.00 0.00 0.00 0.00 0.00 0.00 0.00 0.00 0.00 0.00 0.00 0.00 0.00 0.00 0.00 0.00 0.00 0.00 0.00 0.00 0.00 0.00 0.00 0.00 0.00 0.00 0.00 0.00 0.00 0.00 0.00 0.00 0.00 0.00 0.00 0.00 0.00
0.00 0.00 0.00 0.00 0.00 0.00 0.00 0.00 0.00 0.00 0.00 0.00 0.00 0.00 0.00 0.00 0.00 0.00 0.00 0.00 0.00 0.00 0.00 0.00 0.00 0.00 0.00 0.00 0.00 0.00 0.00 0.00 0.00 0.00 0.00 0.00 0.00 0.00 0.00 0.00 0.00 0.00 0.00
0.00 0.00 0.00 0.00 0.00 0.00 0.00 0.00 0.00 0.00 0.00 0.00 0.00 0.00 0.00 0.00 0.00 0.00 0.00 0.00 0.00 0.00 0.00 0.00 0.00 0.00 0.00 0.00 0.00 0.00 0.00 0.00 0.00 0.00 0.00 0.00 0.00 0.00 0.00 0.00 0.00 0.00 0.00
0.00 0.01 0.01 0.01 0.01 0.01 0.01 0.00 0.00 0.00 0.00 0.00 0.00 0.00 0.00 0.00 0.00 0.00 0.00 0.00 0.00 0.00 0.00 0.00 0.00 0.00 0.00 0.00 0.00 0.00 0.00 0.00 0.00 0.00 0.00 0.00 0.00 0.00 0.00 0.00 0.00 0.00 0.00
0.01 0.01 0.02 0.02 0.02 0.02 0.02 0.02 0.01 0.01 0.00 0.00 0.01 0.01 0.00 0.00 0.00 0.00 0.00 0.00 0.00 0.00 0.00 0.00 0.00 0.00 0.00 0.00 0.00 0.00 0.00 0.00 0.00 0.00 0.00 0.00 0.00 0.00 0.00 0.00 0.00 0.00 0.00
0.02 0.02 0.04 0.04 0.04 0.04 0.03 0.03 0.03 0.02 0.03 0.03 0.02 0.01 0.01 0.01 0.01 0.01 0.01 0.00 0.00 0.00 0.00 0.00 0.00 0.00 0.00 0.00 0.00 0.00 0.00 0.00 0.00 0.00 0.00 0.00 0.00 0.00 0.00 0.00 0.00 0.00 0.00
0.04 0.05 0.05 0.06 0.06 0.06 0.05 0.05 0.05 0.05 0.05 0.04 0.02 0.01 0.01 0.01 0.01 0.01 0.01 0.01 0.00 0.00 0.00 0.00 0.00 0.00 0.00 0.00 0.00 0.00 0.00 0.00 0.00 0.00 0.00 0.00 0.00 0.00 0.00 0.00 0.00 0.00 0.00
0.04 0.05 0.06 0.07 0.08 0.08 0.07 0.06 0.05 0.04 0.03 0.03 0.02 0.02 0.02 0.02 0.02 0.02 0.02 0.01 0.01 0.01 0.01 0.00 0.00 0.00 0.00 0.00 0.00 0.00 0.00 0.00 0.00 0.00 0.00 0.00 0.00 0.00 0.00 0.00 0.00 0.00 0.00
0.03 0.04 0.05 0.05 0.05 0.04 0.04 0.04 0.04 0.04 0.03 0.02 0.02 0.02 0.02 0.02 0.02 0.02 0.02 0.02 0.02 0.02 0.01 0.01 0.01 0.01 0.01 0.00 0.00 0.00 0.00 0.00 0.00 0.00 0.00 0.00 0.00 0.00 0.00 0.00 0.00 0.00 0.00
0.01 0.02 0.02 0.02 0.02 0.02 0.03 0.03 0.03 0.03 0.02 0.02 0.03 0.02 0.02 0.02 0.02 0.02 0.03 0.03 0.02 0.02 0.01 0.01 0.01 0.01 0.01 0.01 0.01 0.01 0.00 0.00 0.00 0.00 0.00 0.00 0.00 0.00 0.00 0.00 0.00 0.00 0.00
0.01 0.01 0.01 0.01 0.01 0.02 0.02 0.02 0.02 0.01 0.01 0.02 0.02 0.01 0.01 0.01 0.01 0.02 0.03 0.02 0.02 0.02 0.02 0.02 0.02 0.01 0.01 0.01 0.01 0.01 0.01 0.01 0.00 0.00 0.00 0.00 0.00 0.00 0.00 0.00 0.00 0.00 0.00
0.00 0.00 0.00 0.00 0.01 0.01 0.01 0.01 0.01 0.01 0.01 0.01 0.01 0.01 0.01 0.01 0.01 0.02 0.03 0.03 0.03 0.04 0.04 0.02 0.02 0.02 0.02 0.02 0.02 0.02 0.01 0.01 0.00 0.00 0.00 0.00 0.00 0.00 0.00 0.00 0.00 0.00 0.00
0.00 0.00 0.00 0.00 0.00 0.00 0.00 0.00 0.00 0.00 0.00 0.00 0.00 0.00 0.01 0.01 0.02 0.02 0.03 0.03 0.04 0.04 0.04 0.03 0.03 0.03 0.03 0.02 0.02 0.02 0.01 0.01 0.01 0.00 0.00 0.00 0.00 0.00 0.00 0.00 0.00 0.00 0.00
0.00 0.00 0.00 0.00 0.00 0.00 0.00 0.00 0.00 0.00 0.00 0.00 0.00 0.00 0.01 0.01 0.02 0.03 0.03 0.03 0.03 0.03 0.03 0.04 0.04 0.04 0.03 0.03 0.02 0.02 0.01 0.01 0.01 0.00 0.00 0.00 0.00 0.00 0.00 0.00 0.00 0.00 0.00
0.00 0.00 0.00 0.00 0.00 0.00 0.00 0.00 0.00 0.00 0.00 0.00 0.00 0.00 0.01 0.01 0.02 0.03 0.03 0.03 0.03 0.04 0.05 0.05 0.05 0.04 0.04 0.03 0.03 0.03 0.02 0.02 0.01 0.01 0.01 0.01 0.01 0.01 0.01 0.01 0.01 0.01 0.00
0.00 0.00 0.00 0.00 0.00 0.00 0.00 0.00 0.00 0.00 0.00 0.00 0.00 0.01 0.02 0.02 0.03 0.04 0.05 0.06 0.08 0.10 0.11 0.11 0.09 0.08 0.06 0.04 0.04 0.04 0.03 0.03 0.03 0.02 0.02 0.02 0.02 0.02 0.02 0.02 0.02 0.01 0.01
0.00 0.00 0.00 0.00 0.00 0.00 0.00 0.00 0.00 0.00 0.00 0.01 0.01 0.02 0.02 0.03 0.04 0.06 0.07 0.08 0.08 0.08 0.08 0.08 0.08 0.07 0.07 0.06 0.05 0.04 0.04 0.04 0.03 0.03 0.03 0.02 0.02 0.02 0.02 0.02 0.02 0.02 0.02
0.00 0.00 0.00 0.00 0.00 0.00 0.00 0.00 0.00 0.00 0.01 0.02 0.02 0.03 0.05 0.06 0.08 0.10 0.12 0.13 0.12 0.11 0.10 0.09 0.08 0.07 0.06 0.06 0.05 0.04 0.04 0.03 0.02 0.02 0.03 0.03 0.03 0.02 0.03 0.03 0.03 0.03 0.02
0.00 0.00 0.00 0.00 0.00 0.00 0.00 0.00 0.00 0.01 0.01 0.03 0.05 0.08 0.10 0.12 0.14 0.16 0.16 0.16 0.14 0.13 0.12 0.09 0.07 0.06 0.05 0.05 0.05 0.04 0.03 0.02 0.02 0.02 0.02 0.02 0.03 0.03 0.03 0.03 0.03 0.03 0.02
0.00 0.00 0.00 0.00 0.00 0.00 0.00 0.00 0.00 0.01 0.02 0.05 0.10 0.15 0.18 0.18 0.19 0.19 0.19 0.17 0.15 0.14 0.13 0.11 0.09 0.09 0.08 0.08 0.06 0.04 0.03 0.02 0.02 0.02 0.01 0.02 0.02 0.02 0.02 0.03 0.03 0.03 0.03
0.00 0.00 0.00 0.00 0.00 0.00 0.00 0.00 0.01 0.02 0.04 0.08 0.13 0.17 0.20 0.23 0.22 0.18 0.13 0.09 0.07 0.07 0.07 0.07 0.07 0.07 0.06 0.05 0.04 0.04 0.04 0.03 0.03 0.02 0.02 0.02 0.02 0.02 0.02 0.03 0.03 0.04 0.04
0.00 0.00 0.00 0.00 0.00 0.00 0.01 0.01 0.02 0.03 0.05 0.07 0.10 0.12 0.14 0.15 0.14 0.13 0.11 0.09 0.07 0.06 0.05 0.04 0.04 0.03 0.03 0.02 0.02 0.02 0.02 0.02 0.02 0.03 0.03 0.03 0.03 0.03 0.03 0.03 0.04 0.06 0.07
MSLP
1014.26 1014.73 1015.24 1015.75 1016.22 1016.63 1016.95 1017.21 1017.41 1017.59 1017.75 1017.92 1018.09 1018.25 1018.40 1018.53 1018.62 1018.68 1018.72 1018.74 1018.77 1018.81 1018.88 1018.97 1019.08 1019.20 1019.32 1019.42 1019.51 1019.57 1019.60 1019.59 1019.54 1019.45 1019.31 1019.12 1018.88 1018.59 1018.27 1017.93 1017.60 1017.30 1017.05
1013.81 1014.27 1014.76 1015.26 1015.72 1016.13 1016.46 1016.73 1016.95 1017.14 1017.30 1017.46 1017.61 1017.76 1017.89 1018.00 1018.09 1018.15 1018.19 1018.22 1018.25 1018.29 1018.36 1018.44 1018.53 1018.64 1018.74 1018.84 1018.94 1019.02 1019.08 1019.12 1019.13 1019.11 1019.03 1018.91 1018.72 1018.48 1018.19 1017.87 1017.54 1017.23 1016.96
1013.31 1013.77 1014.26 1014.74 1015.19 1015.59 1015.93 1016.22 1016.45 1016.64 1016.81 1016.97 1017.12 1017.25 1017.37 1017.47 1017.55 1017.60 1017.65 1017.69 1017.73 1017.78 1017.84 1017.92 1018.00 1018.09 1018.18 1018.28 1018.37 1018.45 1018.53 1018.60 1018.65 1018.67 1018.66 1018.58 1018.45 1018.26 1018.02 1017.73 1017.42 1017.12 1016.83
1012.79 1013.24 1013.72 1014.19 1014.63 1015.02 1015.36 1015.65 1015.89 1016.09 1016.28 1016.44 1016.59 1016.72 1016.83 1016.92 1017.00 1017.06 1017.11 1017.16 1017.21 1017.27 1017.34 1017.41 1017.50 1017.58 1017.67 1017.75 1017.83 1017.91 1017.98 1018.06 1018.13 1018.17 1018.19 1018.16 1018.08 1017.94 1017.74 1017.50 1017.23 1016.95 1016.68
1012.26 1012.71 1013.17 1013.62 1014.03 1014.41 1014.74 1015.02 1015.26 1015.48 1015.67 1015.84 1016.00 1016.13 1016.25 1016.34 1016.42 1016.49 1016.55 1016.61 1016.68 1016.75 1016.83 1016.92 1017.01 1017.09 1017.16 1017.23 1017.30 1017.36 1017.43 1017.49 1017.56 1017.61 1017.64 1017.64 1017.60 1017.51 1017.37 1017.19 1016.97 1016.73 1016.48
1011.80 1012.22 1012.65 1013.05 1013.43 1013.77 1014.07 1014.34 1014.57 1014.79 1014.99 1015.17 1015.34 1015.48 1015.61 1015.71 1015.80 1015.88 1015.95 1016.03 1016.11 1016.20 1016.29 1016.39 1016.49 1016.57 1016.64 1016.70 1016.76 1016.80 1016.84 1016.89 1016.94 1016.98 1017.02 1017.04 1017.03 1016.99 1016.91 1016.78 1016.63 1016.44 1016.24
1011.49 1011.85 1012.22 1012.56 1012.87 1013.15 1013.41 1013.64 1013.85 1014.06 1014.26 1014.45 1014.62 1014.78 1014.92 1015.04 1015.14 1015.22 1015.31 1015.39 1015.48 1015.58 1015.69 1015.80 1015.90 1015.99 1016.06 1016.12 1016.16 1016.19 1016.21 1016.23 1016.26 1016.29 1016.32 1016.35 1016.37 1016.37 1016.34 1016.29 1016.20 1016.08 1015.92
1011.39 1011.68 1011.96 1012.21 1012.43 1012.63 1012.81 1012.99 1013.17 1013.35 1013.54 1013.72 1013.90 1014.07 1014.21 1014.34 1014.44 1014.53 1014.61 1014.69 1014.78 1014.88 1014.99 1015.10 1015.21 1015.31 1015.39 1015.44 1015.48 1015.49 1015.50 1015.51 1015.51 1015.53 1015.56 1015.59 1015.63 1015.66 1015.69 1015.69 1015.67 1015.62 1015.53
1011.56 1011.75 1011.92 1012.06 1012.18 1012.28 1012.37 1012.48 1012.60 1012.74 1012.90 1013.07 1013.24 1013.41 1013.55 1013.66 1013.76 1013.83 1013.90 1013.96 1014.04 1014.12 1014.22 1014.32 1014.42 1014.52 1014.60 1014.66 1014.70 1014.72 1014.72 1014.72 1014.71 1014.72 1014.74 1014.77 1014.83 1014.89 1014.95 1015.01 1015.06 1015.07 1015.05
1011.98 1012.07 1012.12 1012.14 1012.14 1012.14 1012.14 1012.16 1012.22 1012.31 1012.43 1012.57 1012.72 1012.86 1012.98 1013.07 1013.14 1013.18 1013.21 1013.23 1013.26 1013.31 1013.37 1013.45 1013.54 1013.64 1013.72 1013.79 1013.84 1013.87 1013.88 1013.88 1013.88 1013.88 1013.89 1013.93 1013.99 1014.07 1014.16 1014.26 1014.35 1014.43 1014.47
1012.60 1012.57 1012.51 1012.43 1012.32 1012.22 1012.13 1012.08 1012.07 1012.10 1012.17 1012.27 1012.37 1012.47 1012.55 1012.59 1012.60 1012.58 1012.55 1012.51 1012.47 1012.46 1012.48 1012.52 1012.58 1012.67 1012.75 1012.84 1012.91 1012.96 1012.99 1013.01 1013.02 1013.03 1013.04 1013.08 1013.13 1013.22 1013.32 1013.44 1013.57 1013.69 1013.77
1013.28 1013.17 1013.02 1012.85 1012.66 1012.47 1012.31 1012.20 1012.12 1012.10 1012.12 1012.16 1012.20 1012.24 1012.25 1012.22 1012.15 1012.04 1011.92 1011.79 1011.67 1011.58 1011.53 1011.52 1011.55 1011.62 1011.71 1011.81 1011.91 1012.00 1012.07 1012.12 1012.15 1012.18 1012.20 1012.23 1012.28 1012.36 1012.46 1012.58 1012.72 1012.86 1012.98
1013.91 1013.74 1013.53 1013.29 1013.05 1012.82 1012.62 1012.45 1012.33 1012.26 1012.21 1012.19 1012.16 1012.11 1012.03 1011.90 1011.73 1011.52 1011.29 1011.05 1010.83 1010.65 1010.53 1010.46 1010.45 1010.50 1010.60 1010.72 1010.86 1010.99 1011.11 1011.20 1011.27 1011.33 1011.36 1011.40 1011.44 1011.50 1011.58 1011.69 1011.81 1011.95 1012.08
1014.36 1014.14 1013.91 1013.66 1013.40 1013.15 1012.93 1012.74 1012.59 1012.47 1012.36 1012.26 1012.15 1012.00 1011.81 1011.56 1011.27 1010.94 1010.59 1010.24 1009.91 1009.64 1009.44 1009.31 1009.27 1009.30 1009.41 1009.56 1009.74 1009.93 1010.10 1010.25 1010.37 1010.46 1010.52 1010.56 1010.59 1010.63 1010.69 1010.77 1010.87 1010.99 1011.11
1014.54 1014.32 1014.09 1013.85 1013.61 1013.38 1013.16 1012.97 1012.79 1012.63 1012.46 1012.28 1012.07 1011.81 1011.49 1011.12 1010.70 1010.24 1009.77 1009.30 1008.88 1008.52 1008.24 1008.07 1008.00 1008.03 1008.14 1008.33 1008.55 1008.80 1009.04 1009.25 1009.43 1009.56 1009.65 1009.70 1009.73 1009.75 1009.78 1009.83 1009.90 1009.99 1010.09
1014.46 1014.25 1014.04 1013.84 1013.63 1013.43 1013.24 1013.05 1012.86 1012.66 1012.42 1012.15 1011.83 1011.46 1011.01 1010.51 1009.97 1009.39 1008.80 1008.24 1007.73 1007.30 1006.97 1006.76 1006.67 1006.69 1006.83 1007.05 1007.32 1007.62 1007.92 1008.20 1008.43 1008.61 1008.73 1008.80 1008.83 1008.84 1008.85 1008.87 1008.90 1008.96 1009.04
1014.20 1014.00 1013.82 1013.65 1013.49 1013.33 1013.16 1012.98 1012.76 1012.51 1012.22 1011.86 1011.43 1010.93 1010.37 1009.75 1009.08 1008.40 1007.72 1007.08 1006.51 1006.03 1005.67 1005.43 1005.34 1005.37 1005.52 1005.77 1006.08 1006.43 1006.78 1007.10 1007.38 1007.59 1007.74 1007.83 1007.88 1007.88 1007.88 1007.88 1007.89 1007.93 1007.99
1013.86 1013.68 1013.52 1013.38 1013.25 1013.12 1012.96 1012.77 1012.53 1012.23 1011.86 1011.41 1010.88 1010.27 1009.60 1008.88 1008.12 1007.36 1006.62 1005.93 1005.32 1004.82 1004.44 1004.20 1004.10 1004.14 1004.30 1004.57 1004.90 1005.27 1005.64 1005.99 1006.29 1006.53 1006.71 1006.81 1006.86 1006.88 1006.87 1006.86 1006.86 1006.89 1006.95
1013.57 1013.39 1013.24 1013.12 1013.00 1012.87 1012.71 1012.49 1012.22 1011.86 1011.41 1010.88 1010.26 1009.56 1008.80 1008.00 1007.19 1006.38 1005.61 1004.90 1004.28 1003.78 1003.40 1003.16 1003.07 1003.11 1003.26 1003.52 1003.84 1004.20 1004.57 1004.92 1005.22 1005.46 1005.64 1005.75 1005.80 1005.82 1005.82 1005.81 1005.82 1005.86 1005.92
1013.44 1013.24 1013.07 1012.94 1012.81 1012.66 1012.47 1012.22 1011.89 1011.47 1010.96 1010.35 1009.66 1008.90 1008.09 1007.24 1006.40 1005.58 1004.80 1004.10 1003.50 1003.01 1002.65 1002.42 1002.32 1002.34 1002.47 1002.70 1002.98 1003.30 1003.63 1003.93 1004.20 1004.41 1004.57 1004.67 1004.72 1004.74 1004.74 1004.75 1004.77 1004.82 1004.91
1013.50 1013.26 1013.06 1012.89 1012.72 1012.53 1012.30 1012.00 1011.62 1011.14 1010.57 1009.91 1009.17 1008.37 1007.54 1006.69 1005.85 1005.04 1004.29 1003.62 1003.05 1002.59 1002.24 1002.01 1001.90 1001.89 1001.98 1002.13 1002.35 1002.59 1002.84 1003.07 1003.27 1003.43 1003.55 1003.61 1003.65 1003.66 1003.67 1003.68 1003.72 1003.79 1003.90
1013.74 1013.45 1013.20 1012.97 1012.74 1012.49 1012.20 1011.84 1011.41 1010.89 1010.28 1009.59 1008.83 1008.02 1007.20 1006.37 1005.56 1004.80 1004.09 1003.47 1002.94 1002.50 1002.17 1001.93 1001.79 1001.73 1001.75 1001.82 1001.94 1002.08 1002.22 1002.35 1002.47 1002.55 1002.60 1002.62 1002.62 1002.61 1002.61 1002.63 1002.68 1002.77 1002.90
1014.09 1013.73 1013.41 1013.11 1012.82 1012.50 1012.15 1011.74 1011.26 1010.70 1010.07 1009.38 1008.63 1007.85 1007.05 1006.27 1005.52 1004.81 1004.16 1003.59 1003.10 1002.68 1002.35 1002.09 1001.91 1001.79 1001.72 1001.70 1001.70 1001.73 1001.75 1001.78 1001.78 1001.78 1001.75 1001.72 1001.68 1001.64 1001.63 1001.64 1001.69 1001.78 1001.92
1014.45 1014.03 1013.64 1013.26 1012.89 1012.51 1012.10 1011.64 1011.13 1010.55 1009.92 1009.24 1008.52 1007.78 1007.04 1006.32 1005.63 1004.98 1004.39 1003.86 1003.40 1003.00 1002.65 1002.37 1002.13 1001.94 1001.79 1001.66 1001.56 1001.47 1001.39 1001.30 1001.21 1001.12 1001.03 1000.93 1000.84 1000.77 1000.73 1000.72 1000.76 1000.83 1000.96
1014.76 1014.27 1013.81 1013.36 1012.92 1012.47 1012.01 1011.52 1010.98 1010.40 1009.78 1009.13 1008.45 1007.76 1007.08 1006.42 1005.79 1005.20 1004.65 1004.16 1003.71 1003.31 1002.95 1002.63 1002.34 1002.08 1001.84 1001.63 1001.43 1001.25 1001.07 1000.90 1000.73 1000.57 1000.41 1000.27 1000.14 1000.03 999.95 999.91 999.91 999.95 1000.04
1014.98 1014.43 1013.90 1013.38 1012.88 1012.39 1011.88 1011.36 1010.81 1010.24 1009.63 1009.01 1008.38 1007.74 1007.11 1006.50 1005.92 1005.37 1004.86 1004.38 1003.93 1003.52 1003.13 1002.77 1002.43 1002.11 1001.81 1001.53 1001.26 1001.01 1000.77 1000.54 1000.32 1000.11 999.91 999.73 999.56 999.41 999.29 999.20 999.15 999.14 999.17
Thickness
5725 5723 5720 5717 5713 5709 5705 5703 5701 5698 5695 5693 5690 5687 5684 5681 5678 5674 5671 5668 5664 5662 5659 5656 5653 5651 5647 5645 5642 5639 5637 5634 5634 5634 5634 5635 5636 5638 5641 5642 5645 5647 5651
5728 5724 5721 5717 5712 5708 5705 5702 5699 5696 5694 5691 5688 5684 5682 5678 5675 5671 5668 5665 5662 5659 5656 5652 5650 5647 5643 5641 5637 5635 5633 5630 5629 5628 5628 5628 5628 5629 5631 5633 5635 5638 5640
5729 5724 5719 5715 5711 5708 5705 5701 5697 5694 5691 5688 5685 5682 5679 5676 5672 5669 5666 5663 5660 5657 5653 5650 5647 5642 5639 5636 5633 5630 5628 5627 5623 5622 5622 5620 5620 5620 5621 5623 5625 5627 5631
5728 5723 5718 5715 5712 5708 5704 5699 5695 5692 5688 5685 5682 5680 5677 5673 5670 5666 5663 5660 5656 5653 5650 5647 5643 5640 5636 5633 5629 5626 5623 5620 5618 5616 5615 5614 5612 5612 5611 5613 5615 5617 5620
5725 5721 5718 5715 5710 5705 5700 5696 5692 5688 5686 5683 5679 5676 5673 5670 5667 5664 5660 5657 5653 5650 5647 5643 5640 5637 5634 5630 5626 5622 5618 5615 5612 5610 5609 5607 5606 5604 5604 5605 5606 5607 5609
5722 5719 5716 5711 5706 5701 5697 5693 5688 5685 5682 5678 5675 5672 5670 5668 5665 5662 5657 5653 5650 5646 5643 5640 5636 5633 5630 5627 5623 5619 5615 5610 5607 5604 5603 5601 5600 5598 5596 5596 5596 5597 5599
5717 5714 5710 5706 5701 5697 5693 5688 5684 5681 5677 5674 5672 5669 5667 5665 5661 5657 5653 5649 5646 5642 5639 5635 5632 5630 5625 5621 5618 5615 5611 5607 5604 5600 5599 5597 5595 5592 5590 5589 5588 5589 5591
5709 5705 5701 5697 5693 5689 5685 5682 5679 5675 5671 5669 5667 5665 5662 5660 5656 5652 5648 5644 5641 5638 5635 5631 5627 5624 5620 5615 5611 5608 5605 5602 5598 5596 5594 5593 5589 5587 5584 5583 5582 5581 5582
5699 5696 5693 5691 5687 5683 5678 5675 5672 5668 5665 5663 5662 5659 5656 5655 5652 5647 5641 5637 5635 5633 5630 5626 5622 5619 5615 5608 5604 5601 5599 5596 5592 5590 5588 5586 5583 5580 5576 5573 5572 5572 5576
5688 5686 5684 5682 5679 5676 5672 5668 5664 5661 5658 5655 5653 5651 5649 5648 5645 5640 5634 5630 5628 5627 5624 5621 5617 5613 5610 5603 5598 5595 5593 5591 5586 5584 5581 5579 5576 5573 5570 5568 5568 5568 5569
5676 5675 5672 5670 5668 5665 5662 5659 5655 5651 5648 5645 5643 5642 5640 5638 5636 5632 5626 5622 5621 5620 5618 5616 5613 5608 5603 5597 5592 5590 5589 5585 5580 5576 5573 5571 5569 5567 5565 5563 5562 5562 5564
5663 5661 5659 5656 5654 5652 5649 5646 5642 5639 5636 5634 5632 5631 5630 5628 5626 5623 5619 5614 5612 5609 5611 5610 5607 5601 5596 5591 5586 5584 5579 5573 5570 5567 5565 5564 5562 5561 5560 5559 5557 5557 5558
5647 5645 5643 5641 5638 5636 5633 5630 5627 5624 5621 5620 5618 5618 5618 5617 5615 5611 5609 5606 5602 5599 5601 5601 5598 5593 5587 5582 5579 5575 5570 5566 5563 5561 5561 5561 5559 5557 5554 5552 5551 5550 5550
5631 5628 5626 5623 5621 5619 5616 5613 5610 5607 5605 5604 5602 5602 5602 5601 5600 5599 5597 5595 5592 5589 5589 5589 5586 5581 5577 5574 5571 5567 5564 5562 5559 5558 5558 5556 5553 5549 5547 5546 5545 5544 5544
5615 5612 5610 5607 5604 5602 5599 5595 5593 5590 5586 5584 5584 5582 5582 5585 5585 5582 5579 5580 5579 5577 5575 5574 5573 5571 5568 5566 5563 5561 5557 5554 5551 5551 5549 5548 5546 5544 5543 5540 5538 5537 5538
5600 5597 5593 5590 5588 5585 5582 5580 5577 5573 5570 5566 5563 5561 5563 5562 5563 5562 5562 5561 5560 5558 5556 5561 5563 5563 5562 5560 5558 5555 5551 5549 5547 5546 5544 5542 5541 5540 5539 5536 5533 5533 5535
5584 5581 5577 5574 5570 5567 5564 5561 5561 5560 5555 5550 5547 5544 5542 5542 5542 5543 5544 5544 5545 5541 5542 5549 5552 5554 5553 5552 5550 5549 5547 5545 5542 5540 5539 5537 5535 5534 5533 5532 5531 5530 5531
5568 5565 5561 5556 5552 5548 5544 5541 5537 5536 5537 5536 5532 5527 5524 5523 5524 5524 5525 5525 5529 5529 5532 5537 5540 5542 5542 5542 5541 5540 5540 5537 5535 5534 5533 5532 5531 5530 5529 5529 5529 5529 5529
5552 5547 5542 5538 5533 5528 5524 5520 5516 5513 5512 5512 5512 5511 5506 5505 5506 5506 5505 5507 5513 5517 5519 5522 5526 5528 5530 5530 5531 5531 5531 5530 5529 5528 5528 5527 5526 5526 5526 5527 5527 5525 5524
5534 5530 5525 5520 5514 5509 5505 5500 5497 5494 5491 5490 5489 5489 5488 5487 5490 5493 5492 5493 5497 5502 5506 5509 5513 5516 5518 5519 5521 5522 5522 5523 5523 5523 5524 5523 5523 5523 5523 5524 5524 5524 5524
5516 5510 5506 5500 5495 5490 5485 5482 5478 5475 5473 5472 5472 5470 5466 5468 5473 5478 5481 5483 5486 5490 5494 5499 5502 5506 5509 5511 5513 5515 5516 5518 5518 5519 5519 5519 5519 5519 5520 5520 5521 5521 5521
5497 5492 5487 5482 5477 5473 5468 5465 5461 5459 5457 5457 5457 5457 5455 5456 5461 5465 5469 5473 5477 5480 5485 5490 5494 5499 5502 5505 5508 5510 5512 5514 5515 5515 5515 5515 5515 5516 5516 5517 5518 5518 5518
5481 5476 5471 5466 5461 5457 5454 5450 5447 5445 5444 5444 5444 5445 5446 5447 5450 5454 5458 5463 5468 5473 5478 5483 5488 5493 5497 5499 5502 5505 5507 5510 5510 5510 5511 5511 5512 5512 5513 5514 5515 5516 5516
5466 5461 5456 5452 5447 5443 5440 5437 5435 5433 5433 5433 5434 5434 5436 5438 5441 5445 5450 5455 5460 5467 5472 5477 5482 5487 5491 5495 5498 5500 5502 5503 5504 5504 5505 5506 5507 5508 5509 5510 5512 5513 5514
5452 5447 5442 5438 5434 5430 5428 5426 5424 5423 5423 5424 5425 5427 5429 5432 5436 5440 5445 5450 5456 5461 5466 5471 5476 5481 5486 5489 5491 5494 5495 5496 5496 5497 5499 5500 5502 5503 5504 5506 5508 5510 5511
5439 5434 5430 5425 5422 5419 5417 5416 5415 5415 5415 5417 5419 5422 5425 5428 5433 5438 5442 5447 5452 5457 5462 5467 5472 5476 5480 5483 5486 5487 5489 5490 5491 5491 5492 5495 5497 5499 5500 5502 5504 5506 5508